{"data":{"norad_id":48386,"intl_designator":"2021-038AK","name":"STARLINK-2606","alt_names":[],"object_type":"PAYLOAD","status":"ACTIVE","operator":null,"country":"US","launch_date":"2021-05-04","launch_site_code":"AFETR","launch_vehicle":null,"mission":null,"orbit_class":"UNKNOWN","rcs_meters":null,"size_class":null,"mass_kg":null,"dimensions":null,"purposes":["comms"],"wikipedia_slug":null,"has_3d_model":false,"image_url":null,"decayed_at":null,"tle_current":{"epoch":"2026-05-24T23:13:13.206144Z","epoch_age_seconds":77610,"freshness":"FRESH","line1":"1 48386U 21038AK  26144.96751396  .00048851  00000+0  15851-2 0  9993","line2":"2 48386  53.1610 350.7752 0002965  82.0372 278.0966 15.31505899278933","mean_motion":15.31505899,"eccentricity":0.0002965,"inclination_deg":53.161,"raan_deg":350.7752,"arg_perigee_deg":82.0372,"mean_anomaly_deg":278.0966,"bstar":0.0015851,"rev_number":27893,"period_min":94.025103066221,"perigee_km":469.28779771169,"apogee_km":473.34952491885,"semimajor_km":6849.4556613153,"source":"CELESTRAK","updated_at":"2026-05-25T13:38:16.690470Z"}}}